Regional Weather Roundup
Issued by NWS

Home | Current Version | Previous Version | Graphics & Text | Print | Product List | Glossary On
Versions: 1 2 3 4 5 6 7 8 9 10 11 12 13 14 15 16 17 18 19 20 21 22 23 24 25 26 27 28 29 30 31 32 33 34 35 36 37 38 39 40 41 42 43 44 45 46 47 48 49 50
000
ASUS43 KBIS 062002
RWRND

NORTH DAKOTA REGIONAL WEATHER ROUNDUP
NATIONAL WEATHER SERVICE BISMARCK ND
300 PM CDT MON JUL 06 2015

NOTE: "FAIR" INDICATES FEW OR NO CLOUDS BELOW 12,000 FEET WITH NO
SIGNIFICANT WEATHER AND/OR OBSTRUCTIONS TO VISIBILITY.


NDZ001>003-009>011-017-062100-
NORTHWEST NORTH DAKOTA

CITY           SKY/WX    TMP DP  RH WIND       PRES   REMARKS
WILLISTON      PTSUNNY   68  49  50 N10       30.20S HAZE
MINOT          MOSUNNY   65  47  52 N9        30.17S
$$

NDZ018>021-031>035-040>046-062100-
SOUTHWEST NORTH DAKOTA

CITY           SKY/WX    TMP DP  RH WIND       PRES   REMARKS
BISMARCK       PTSUNNY   70  51  51 N13       30.15S HAZE
DICKINSON      PTSUNNY   70  50  49 NW12      30.17S
GARRISON         N/A     65  52  62 N5        30.16F
HETTINGER ARPT CLOUDY    69  49  48 W12       30.20F
$$

NDZ004>008-012>016-024-026-027-054-062100-
NORTHEAST NORTH DAKOTA

CITY           SKY/WX    TMP DP  RH WIND       PRES   REMARKS
GRAND FORKS    PTSUNNY   63  48  58 N15G22    30.10S
GRND FRKS AFB  PTSUNNY   63  50  61 N13       30.11F
DEVILS LAKE    CLOUDY    61  46  59 N10G16    30.13S
$$

NDZ022-023-025-028>030-036>039-047>053-062100-
SOUTHEAST NORTH DAKOTA

CITY           SKY/WX    TMP DP  RH WIND       PRES   REMARKS
FARGO          PTSUNNY   67  47  48 N22G30    30.09R
JAMESTOWN      PTSUNNY   65  52  62 N14       30.12S
$$



USA.gov is the U.S. government's official web portal to all federal, state and local government web resources and services.